Minot, ND

9:10 PM CDT on April 30, 2017 (GMT -0500)
Minot International

Weather History for KMOT - April, 2014

Change the Weather History Date:

Thursday, April 10, 2014

  Actual Average Record
Temperature  
Mean Temperature 47 °F 41 °F  
Max Temperature 59 °F 52 °F 81 °F (1971)
Min Temperature 35 °F 30 °F 3 °F (1997)
Degree Days  
Heating Degree Days 18 24  
Month to date heating degree days 277 265  
Since 1 July heating degree days 8793 7980  
Cooling Degree Days 0 0  
Month to date cooling degree days 0 0  
Year to date cooling degree days 0 0  
Moisture  
Dew Point 21 °F    
Average Humidity 43    
Maximum Humidity 64    
Minimum Humidity 22    
Precipitation  
Precipitation T in 0.03 in 1.00 in (1993)
Month to date precipitation 0.11 0.31  
Year to date precipitation 0.52 2.06  
Sea Level Pressure  
Sea Level Pressure 29.84 in    
Wind  
Wind Speed 15 mph (West)    
Max Wind Speed 35 mph    
Max Gust Speed 42 mph    
Visibility 10 miles    
Events Rain    
T = Trace of Precipitation, MM = Missing Value Source: NWS Daily Summary

Daily Weather History Graph

Daily Weather History Graph

Search for Another Location

Airport or City:

Trip Planner

Search our weather history database for the weather conditions in past years. The results will help you decide how hot, cold, wet, or windy it might be!

Date:

Astronomy

Apr. 10, 2014 Rise Set
Actual Time 7:04 AM CDT 8:28 PM CDT
Civil Twilight 6:32 AM CDT 9:01 PM CDT
Nautical Twilight 5:53 AM CDT 9:40 PM CDT
Astronomical Twilight 5:11 AM CDT 10:22 PM CDT
Moon 3:55 PM CDT (4/10) 4:49 AM CDT (4/10)
Length of Visible Light 14h 28m
Length of Day
13h 23m
Waxing Gibbous, 80% of the Moon is Illuminated
Apr 10
Waxing Gibbous
Apr 15
Full
Apr 22
Last Quarter
Apr 29
New
May 6
First Quarter

Hourly Weather History & Observations

Time (CDT) Temp. Windchill Dew Point Humidity Pressure Visibility Wind Dir Wind Speed Gust Speed Precip Events Conditions
12:54 AM 41.0 °F 32.8 °F 21.9 °F 47% 29.74 in 10.0 mi West 16.1 mph - N/A   Clear
1:54 AM 41.0 °F 32.2 °F 21.0 °F 45% 29.75 in 10.0 mi West 18.4 mph - N/A   Clear
2:54 AM 41.0 °F 32.5 °F 23.0 °F 49% 29.77 in 10.0 mi West 17.3 mph - N/A   Clear
3:54 AM 39.9 °F 30.8 °F 23.0 °F 51% 29.78 in 10.0 mi West 18.4 mph - N/A   Clear
4:54 AM 39.0 °F 31.0 °F 23.0 °F 53% 29.80 in 10.0 mi West 13.8 mph - N/A   Clear
5:54 AM 37.9 °F 28.9 °F 23.0 °F 55% 29.81 in 10.0 mi West 16.1 mph - N/A   Clear
6:54 AM 35.1 °F 25.5 °F 24.1 °F 64% 29.83 in 10.0 mi West 15.0 mph - N/A   Clear
7:54 AM 37.0 °F 28.5 °F 24.1 °F 59% 29.85 in 10.0 mi WSW 13.8 mph - N/A   Clear
8:54 AM 39.0 °F 30.6 °F 24.1 °F 55% 29.87 in 10.0 mi WSW 15.0 mph - N/A   Clear
9:54 AM 45.0 °F 38.2 °F 23.0 °F 42% 29.86 in 10.0 mi West 15.0 mph - N/A   Clear
10:54 AM 50.0 °F - 21.9 °F 33% 29.86 in 10.0 mi West 17.3 mph - N/A   Clear
11:54 AM 53.1 °F - 19.0 °F 26% 29.87 in 10.0 mi West 24.2 mph 28.8 mph N/A   Clear
12:54 PM 55.0 °F - 18.0 °F 23% 29.86 in 10.0 mi West 27.6 mph 31.1 mph N/A   Clear
1:54 PM 55.9 °F - 17.1 °F 22% 29.84 in 10.0 mi WNW 24.2 mph 35.7 mph N/A   Mostly Cloudy
2:54 PM 57.0 °F - 16.0 °F 20% 29.83 in 10.0 mi West 27.6 mph 35.7 mph 0.00 in Rain Light Rain
3:54 PM 55.0 °F - 16.0 °F 22% 29.83 in 10.0 mi West 25.3 mph 35.7 mph 0.00 in   Mostly Cloudy
4:54 PM 55.9 °F - 17.1 °F 22% 29.83 in 10.0 mi West 20.7 mph 32.2 mph N/A   Overcast
5:54 PM 54.0 °F - 18.0 °F 24% 29.84 in 10.0 mi West 20.7 mph - N/A   Overcast
6:54 PM 53.1 °F - 19.9 °F 27% 29.84 in 10.0 mi NW 15.0 mph - N/A   Overcast
7:54 PM 48.9 °F - 21.9 °F 35% 29.85 in 10.0 mi NNW 9.2 mph - N/A   Mostly Cloudy
8:54 PM 44.1 °F 40.8 °F 24.1 °F 45% 29.88 in 10.0 mi NNW 5.8 mph - N/A   Overcast
9:54 PM 43.0 °F 40.3 °F 21.9 °F 43% 29.90 in 10.0 mi NW 4.6 mph - N/A   Partly Cloudy
10:54 PM 43.0 °F - 23.0 °F 45% 29.89 in 10.0 mi Calm Calm - N/A   Overcast
11:54 PM 36.0 °F - 21.9 °F 57% 29.89 in 10.0 mi Calm Calm - N/A   Scattered Clouds